Tracking 19245 objects as of 22-Aug-2018
HD Live streaming from Space Station
objects crossing your sky now

NOAA 16 DEB

Track NOAA 16 DEB now!
10-day predictions


NORAD ID: 41136
Int'l Code: 2000-055BT
Perigee: 783.4 km
Apogee: 849.9 km
Inclination: 99.1 °
Period: 101.1 minutes
Semi major axis: 7187 km
RCS: Unknown
Launch date: September 21, 2000
Source: United States (US)
Launch site: AIR FORCE WESTERN TEST RANGE (AFWTR)

Note: This is SATELLITE DEBRIS
aabbcc
Your satellite tracking list
Your tracking list is empty




NASA's NSSDC Master Catalog

Two Line Element Set (TLE):
1 41136U 00055BT  18232.57783865 +.00001710 +00000-0 +74681-3 0  9998
2 41136 099.0992 346.2671 0046249 120.8887 239.6851 14.24687587141139
Source of the keplerian elements: AFSPC